Content
SEND FEEDBACK

Daily
Averages
Monthly
Summary
United States of America

ST. LOUIS - SAINT LOUIS UNIVERSITY, MISSOURI


Home > North America > United States > Missouri
Elevation: 580 feet     Latitude: 38 38N     Longitude: 090 14W

WEATHER
 
SELECT A DAY
Number of Records: 184,107;   Date Range: 1/1/95 - 4/14/14
 
SHARE

PRINT THIS DATA

[ ← Previous Day ]
WEATHER ALMANAC - FEBRUARY 14, 2013
[ Next Day → ]
[ °C ]   °F
Weather ElementAverageHighLow
Temperature46.4 °F55.9 °F (2:53 pm)37.9 °F (6:53 am)
Dewpoint30.8 °F34 °F (11:53 am)27 °F (11:53 pm)
Humidity55.5 %70 % (6:53 am)40 % (2:53 pm)
Barometer29.94 in30.07 in (11:53 pm)29.83 in (3:53 am)
Wind Speed8.8 mph15 mph (7:53 pm)
Weather ElementAverage
Visibility10 mi
Wind DirectionWSW (255.2 °)

Weather ElementTotal
Precipitation---
Heating Degree Days18.1 (Base 65)
Averaged from 23 records on February 14, 2013
WEATHER CONDITIONS BREAKOUT
WIND DIRECTION BREAKOUT
WEATHER BY HOUR - FEBRUARY 14, 2013
[ °C ]   °F
Local TimeTemperatureDewpointHumidityBarometerVisibilityWind DirectionWind SpeedGust SpeedPrecipitationEventsConditions
1:53 AM39.9 °F30.0 °F68 %29.84 in10.0 miVariable3.5 mphClear
2:53 AM41.0 °F30.0 °F65 %29.84 in10.0 miSW (220°)6.9 mphClear
3:53 AM39.9 °F30.0 °F68 %29.83 in10.0 miSW (220°)4.6 mphScattered Clouds
4:53 AM39.9 °F30.0 °F68 %29.83 in10.0 miSW (220°)6.9 mphMostly Cloudy
5:53 AM39.0 °F28.9 °F67 %29.84 in10.0 miSW (230°)5.8 mphScattered Clouds
6:53 AM37.9 °F28.9 °F70 %29.86 in10.0 miSW (230°)5.8 mphClear
7:53 AM41.0 °F30.0 °F65 %29.89 in10.0 miWSW (250°)8.1 mphPartly Cloudy
8:53 AM45.0 °F30.9 °F58 %29.91 in10.0 miWest (260°)10.4 mphPartly Cloudy
9:53 AM48.0 °F32.0 °F54 %29.92 in10.0 miWest (280°)6.9 mphClear
10:53 AM50.0 °F33.1 °F52 %29.93 in10.0 miWest (280°)10.4 mphClear
11:53 AM52.0 °F34.0 °F50 %29.93 in10.0 miVariable6.9 mphClear
12:53 PM55.0 °F33.1 °F43 %29.91 in10.0 miWNW (290°)12.7 mphClear
1:53 PM55.0 °F32.0 °F42 %29.91 in10.0 miNNW (330°)11.5 mphClear
2:53 PM55.9 °F32.0 °F40 %29.92 in10.0 miWest (260°)10.4 mphClear
3:53 PM55.9 °F32.0 °F40 %29.94 in10.0 miWest (280°)9.2 mphScattered Clouds
4:53 PM53.1 °F32.0 °F45 %29.96 in10.0 miNW (320°)10.4 mphClear
5:53 PM48.9 °F32.0 °F52 %29.99 in10.0 miNNW (330°)11.5 mphClear
6:53 PM48.0 °F32.0 °F54 %30.03 in10.0 miNW (310°)11.5 mphClear
7:53 PM46.9 °F30.9 °F54 %30.04 in10.0 miNW (320°)15.0 mphClear
8:53 PM44.1 °F30.0 °F58 %30.05 in10.0 miNW (310°)8.1 mphClear
9:53 PM44.1 °F28.9 °F55 %30.05 in10.0 miWNW (290°)5.8 mphScattered Clouds
10:53 PM44.1 °F28.9 °F55 %30.06 in10.0 miNW (310°)8.1 mphPartly Cloudy
11:53 PM43.0 °F27.0 °F53 %30.07 in10.0 miNNW (330°)12.7 mphOvercast
Hourly data recorded from KCPS, located 5.61 miles away from St. Louis - Saint Louis University, Missouri







STORIES FROM OUR PARTNERS